Location: North Wawona
(37.5477°N, 119.6446°W)
Time: 02:55:45
(UTC+00:00)

Cosmos 2208 Rocket - Pass Details

Date: 03 August 2024
Orbit: 751 x 803 km, 74.0° (Epoch: 13 September)

Event Time Altitude Azimuth Distance (km) Brightness Sun altitude
Exits shadow 12:17:21 10° 221° (SW) 2,269 5.8 -9.3°
Maximum altitude 12:22:14 43° 293° (WNW) 1,049 4.5 -8.4°
Drops below altitude 10° 12:27:08 10° 4° (N) 2,280 6.9 -7.6°
Sets 12:29:38 0° 12° (NNE) 3,211 7.9 -7.1°
